Regional Weather Roundup
Issued by NWS

Home | Current Version | Previous Version | Text Only | Print | Product List | Glossary On
Versions: 1 2 3 4 5 6 7 8 9 10 11 12 13 14 15 16 17 18 19 20 21 22 23 24 25 26 27 28 29 30 31 32 33 34 35 36 37 38 39 40 41 42 43 44 45 46 47 48 49 50
000
ASUS43 KTOP 191108
RWRKS

WEATHER ROUNDUP FOR KANSAS
NATIONAL WEATHER SERVICE GOODLAND KS
500 AM CST THU JAN 19 2017

NOTE:  "FAIR" INDICATES FEW OR NO CLOUDS BELOW 12,000 FEET WITH NO
SIGNIFICANT WEATHER AND/OR OBSTRUCTIONS TO VISIBILITY.

KSZ001>006-013>018-027>032-041>047-191200-
NORTHWEST KANSAS

CITY           SKY/WX    TMP DP  RH WIND       PRES   REMARKS
GOODLAND       PTCLDY    24  23  96 CALM      29.63F
HAYS           CLOUDY    44  42  93 S9        29.70F
HILL CITY      CLOUDY    44  44 100 SE5       29.68F
RUSSELL        CLOUDY    44  43  96 S9        29.70F
$$

KSZ061>065-074>080-084>089-191200-
SOUTHWEST KANSAS

CITY           SKY/WX    TMP DP  RH WIND       PRES   REMARKS
DODGE CITY     CLOUDY    44  42  93 S13       29.66F
ELKHART          N/A     30  19  63 NW10        N/A  WCI  21
GARDEN CITY    CLOUDY    40  39  97 S13       29.63F FOG     WCI  32
GREAT BEND     CLOUDY    45  43  93 S10       29.71F
LIBERAL        CLEAR     34  28  80 S6        29.62F
PRATT          FOG       41  41  99 S9        29.72F VSB 3/4
$$

KSZ066>073-081>083-090>101-191200-
SOUTHEAST KANSAS

CITY           SKY/WX    TMP DP  RH WIND       PRES   REMARKS
CHANUTE        FOG       46  45  96 S6        29.84F VSB 1/2
COFFEYVILLE    CLOUDY    46  44  93 S7        29.86S FOG
HUTCHINSON     CLOUDY    43  43 100 S14       29.76F FOG
MEDICINE LODGE   N/A     44  43  96 SE9       29.74F
NEWTON         FOG       43  42  97 S17       29.78F VSB 3/4
PARSONS        CLOUDY    46  44  93 S7        29.85F FOG
WICHITA INTL   CLOUDY    44  44 100 S12       29.78F FOG
WICHITA JABRA  CLOUDY    44  44 100 S14G21    29.79S FOG
WICHITA MCCONL CLOUDY    44  44  97 S14       29.78F FOG
WINFIELD       CLOUDY    46  44  93 S9        29.81F
$$

KSZ007>012-019>026-033>040-048>060-102>105-191200-
NORTHEAST KANSAS

CITY           SKY/WX    TMP DP  RH WIND       PRES   REMARKS
CONCORDIA      CLOUDY    42  42 100 S10       29.76F
EMPORIA        CLOUDY    44  43  96 S10       29.81F FOG
LAWRENCE       CLOUDY    42  42 100 E7        29.84F FOG
MANHATTAN      CLOUDY    43  38  82 CALM      29.80F
MARYSVILLE     PTCLDY    36  36 100 SE3       29.79F
OLATHE IND     FOG       42  42 100 SE7       29.85F VSB 3/4
OLATHE EXE     FOG       42  42 100 SE5       29.84F VSB 1
SALINA           N/A    N/A N/A N/A MISG        N/A
TOPEKA BILLARD CLOUDY    43  40  89 SE5       29.82F FOG
TOPEKA FORBES  CLOUDY    45  43  93 SE9       29.82F FOG
$$




USA.gov is the U.S. government's official web portal to all federal, state and local government web resources and services.